Location: Carite
(10.3909°N, 67.0102°W)
Time: 05:08:19
(UTC+00:00)

Meteor 2-6 Rocket - Pass Details

Date: 08 September 2024
Orbit: 805 x 913 km, 81.3° (Epoch: 09 October)

Event Time Altitude Azimuth Distance (km) Brightness Sun altitude
Rises 22:45:01 0° 351° (N) 3,314 7.5 -3.9°
Reaches altitude 10° 22:47:24 10° 350° (N) 2,379 6.8 -4.4°
Maximum altitude 22:52:45 75° 266° (W) 835 4.4 -5.7°
Drops below altitude 10° 22:58:07 10° 181° (S) 2,390 6.5 -7.1°
Sets 23:00:31 0° 179° (S) 3,331 7.2 -7.6°
